Time,TemperatureF,DewpointF,PressureIn,WindDirection,WindDirectionDegrees,WindSpeedMPH,WindSpeedGustMPH,Humidity,HourlyPrecipIn,Conditions,Clouds,dailyrainin,SoftwareType,DateUTC
2013-05-28 00:00:00,50.5,0.0,30.02,North,0,0.0,0.0,0,0.00,,,0.00,WUHU216HW,2013-05-28 07:00:00,
2013-05-28 00:05:00,50.5,0.0,30.02,North,0,0.0,0.0,0,0.00,,,0.00,WUHU216HW,2013-05-28 07:05:00,
2013-05-28 00:10:00,50.7,0.0,30.02,North,0,0.0,0.0,0,0.00,,,0.00,WUHU216HW,2013-05-28 07:10:00,
2013-05-28 00:15:00,50.7,0.0,30.01,North,0,0.0,0.0,0,0.00,,,0.00,WUHU216HW,2013-05-28 07:15:00,
2013-05-28 00:20:00,50.7,0.0,30.01,North,0,0.0,0.0,0,0.00,,,0.00,WUHU216HW,2013-05-28 07:20:00,
2013-05-28 00:25:00,50.7,0.0,30.01,North,0,0.0,0.0,0,0.00,,,0.00,WUHU216HW,2013-05-28 07:25:00,
2013-05-28 00:30:00,50.7,0.0,30.01,North,0,0.0,0.0,0,0.00,,,0.00,WUHU216HW,2013-05-28 07:30:00,
2013-05-28 00:35:00,50.7,0.0,30.01,North,0,0.0,0.0,0,0.00,,,0.00,WUHU216HW,2013-05-28 07:35:00,
2013-05-28 00:40:00,50.7,0.0,30.01,North,0,0.0,0.0,0,0.00,,,0.00,WUHU216HW,2013-05-28 07:40:00,
2013-05-28 00:45:00,50.7,0.0,30.01,North,0,0.0,0.0,0,0.00,,,0.00,WUHU216HW,2013-05-28 07:45:00,
2013-05-28 00:50:00,50.7,0.0,30.01,North,0,0.0,0.0,0,0.00,,,0.00,WUHU216HW,2013-05-28 07:50:00,
2013-05-28 00:56:00,50.7,0.0,30.01,North,0,0.0,0.0,0,0.00,,,0.00,WUHU216HW,2013-05-28 07:56:00,
2013-05-28 01:01:00,50.6,0.0,30.01,North,0,0.0,0.0,0,0.00,,,0.00,WUHU216HW,2013-05-28 08:01:00,
2013-05-28 01:06:00,50.6,0.0,30.01,North,0,0.0,0.0,0,0.00,,,0.00,WUHU216HW,2013-05-28 08:06:00,
2013-05-28 01:11:00,50.6,0.0,30.01,North,0,0.0,0.0,0,0.00,,,0.00,WUHU216HW,2013-05-28 08:11:00,
2013-05-28 01:16:00,50.6,0.0,30.00,North,0,0.0,0.0,0,0.00,,,0.00,WUHU216HW,2013-05-28 08:16:00,
2013-05-28 01:21:00,50.6,0.0,30.01,North,0,0.0,0.0,0,0.00,,,0.00,WUHU216HW,2013-05-28 08:21:00,
2013-05-28 01:26:00,50.6,0.0,30.00,North,0,0.0,0.0,0,0.00,,,0.00,WUHU216HW,2013-05-28 08:26:00,
2013-05-28 01:31:00,50.6,0.0,30.00,North,0,0.0,0.0,0,0.00,,,0.00,WUHU216HW,2013-05-28 08:31:00,
2013-05-28 01:36:00,50.6,0.0,30.00,North,0,0.0,0.0,0,0.00,,,0.00,WUHU216HW,2013-05-28 08:36:00,
2013-05-28 01:41:00,50.6,0.0,30.00,North,0,0.0,0.0,0,0.00,,,0.00,WUHU216HW,2013-05-28 08:41:00,
2013-05-28 01:46:00,50.6,0.0,30.00,North,0,0.0,0.0,0,0.00,,,0.00,WUHU216HW,2013-05-28 08:46:00,
2013-05-28 01:52:00,50.6,0.0,30.00,North,0,0.0,0.0,0,0.00,,,0.00,WUHU216HW,2013-05-28 08:52:00,
2013-05-28 01:57:00,50.6,0.0,29.98,North,0,0.0,0.0,0,0.00,,,0.00,WUHU216HW,2013-05-28 08:57:00,
2013-05-28 02:02:00,50.4,0.0,29.99,North,0,0.0,0.0,0,0.00,,,0.00,WUHU216HW,2013-05-28 09:02:00,
2013-05-28 02:07:00,50.4,0.0,29.99,North,0,0.0,0.0,0,0.00,,,0.00,WUHU216HW,2013-05-28 09:07:00,
2013-05-28 02:12:00,50.2,0.0,29.99,North,0,0.0,0.0,0,0.00,,,0.00,WUHU216HW,2013-05-28 09:12:00,
2013-05-28 02:17:00,50.2,0.0,29.99,North,0,0.0,0.0,0,0.00,,,0.00,WUHU216HW,2013-05-28 09:17:00,
2013-05-28 02:22:00,50.2,0.0,29.99,North,0,0.0,0.0,0,0.00,,,0.00,WUHU216HW,2013-05-28 09:22:00,
2013-05-28 02:27:00,50.2,0.0,29.99,North,0,0.0,0.0,0,0.00,,,0.00,WUHU216HW,2013-05-28 09:27:00,
2013-05-28 02:32:00,50.4,0.0,30.00,North,0,0.0,0.0,0,0.00,,,0.00,WUHU216HW,2013-05-28 09:32:00,
2013-05-28 02:37:00,50.4,0.0,30.00,North,0,0.0,0.0,0,0.00,,,0.00,WUHU216HW,2013-05-28 09:37:00,
2013-05-28 02:42:00,50.6,0.0,30.00,North,0,0.0,0.0,0,0.00,,,0.00,WUHU216HW,2013-05-28 09:42:00,
2013-05-28 02:47:00,50.6,0.0,30.00,North,0,0.0,0.0,0,0.00,,,0.00,WUHU216HW,2013-05-28 09:47:00,
2013-05-28 02:53:00,50.6,0.0,29.99,North,0,0.0,0.0,0,0.00,,,0.00,WUHU216HW,2013-05-28 09:53:00,
2013-05-28 02:58:00,50.6,0.0,29.99,North,0,0.0,0.0,0,0.00,,,0.00,WUHU216HW,2013-05-28 09:58:00,
2013-05-28 03:03:00,50.6,0.0,29.99,North,0,0.0,0.0,0,0.00,,,0.00,WUHU216HW,2013-05-28 10:03:00,
2013-05-28 03:08:00,50.6,0.0,29.99,North,0,0.0,0.0,0,0.00,,,0.00,WUHU216HW,2013-05-28 10:08:00,
2013-05-28 03:13:00,50.6,0.0,29.99,North,0,0.0,0.0,0,0.00,,,0.00,WUHU216HW,2013-05-28 10:13:00,
2013-05-28 03:18:00,50.6,0.0,29.98,North,0,0.0,0.0,0,0.00,,,0.00,WUHU216HW,2013-05-28 10:18:00,
2013-05-28 03:23:00,50.6,0.0,29.98,North,0,0.0,0.0,0,0.00,,,0.00,WUHU216HW,2013-05-28 10:23:00,
2013-05-28 03:28:00,50.4,0.0,29.98,North,0,0.0,0.0,0,0.00,,,0.00,WUHU216HW,2013-05-28 10:28:00,
2013-05-28 03:33:00,50.4,0.0,29.98,North,0,0.0,0.0,0,0.00,,,0.00,WUHU216HW,2013-05-28 10:33:00,
2013-05-28 03:38:00,50.3,0.0,29.98,North,0,0.0,0.0,0,0.00,,,0.00,WUHU216HW,2013-05-28 10:38:00,
2013-05-28 03:43:00,50.3,0.0,29.98,North,0,0.0,0.0,0,0.00,,,0.00,WUHU216HW,2013-05-28 10:43:00,
2013-05-28 03:49:00,50.3,0.0,29.98,North,0,0.0,0.0,0,0.00,,,0.00,WUHU216HW,2013-05-28 10:49:00,
2013-05-28 03:54:00,50.3,0.0,29.98,North,0,0.0,0.0,0,0.00,,,0.00,WUHU216HW,2013-05-28 10:54:00,
2013-05-28 03:59:00,50.3,0.0,29.99,North,0,0.0,0.0,0,0.00,,,0.00,WUHU216HW,2013-05-28 10:59:00,
2013-05-28 04:04:00,50.3,0.0,29.98,North,0,0.0,0.0,0,0.00,,,0.00,WUHU216HW,2013-05-28 11:04:00,
2013-05-28 04:09:00,50.1,0.0,29.98,North,0,0.0,0.0,0,0.00,,,0.00,WUHU216HW,2013-05-28 11:09:00,
2013-05-28 04:14:00,50.1,0.0,29.98,North,0,0.0,0.0,0,0.00,,,0.00,WUHU216HW,2013-05-28 11:14:00,
2013-05-28 04:19:00,50.1,0.0,29.98,North,0,0.0,0.0,0,0.00,,,0.00,WUHU216HW,2013-05-28 11:19:00,
2013-05-28 04:24:00,49.9,0.0,29.98,North,0,0.0,0.0,0,0.00,,,0.00,WUHU216HW,2013-05-28 11:24:00,
2013-05-28 04:29:00,50.1,0.0,29.98,North,0,0.0,0.0,0,0.00,,,0.00,WUHU216HW,2013-05-28 11:29:00,
2013-05-28 04:34:00,50.1,0.0,29.99,North,0,0.0,0.0,0,0.00,,,0.00,WUHU216HW,2013-05-28 11:34:00,
2013-05-28 04:39:00,50.2,0.0,29.98,North,0,0.0,0.0,0,0.00,,,0.00,WUHU216HW,2013-05-28 11:39:00,
2013-05-28 04:44:00,50.2,0.0,29.98,North,0,0.0,0.0,0,0.00,,,0.00,WUHU216HW,2013-05-28 11:44:00,
2013-05-28 04:50:00,50.2,0.0,29.97,North,0,0.0,0.0,0,0.00,,,0.00,WUHU216HW,2013-05-28 11:50:00,
2013-05-28 04:55:00,50.2,0.0,29.98,North,0,0.0,0.0,0,0.00,,,0.00,WUHU216HW,2013-05-28 11:55:00,
2013-05-28 05:00:00,50.2,0.0,29.97,North,0,0.0,0.0,0,0.00,,,0.00,WUHU216HW,2013-05-28 12:00:00,
2013-05-28 05:05:00,50.2,0.0,29.98,North,0,0.0,0.0,0,0.00,,,0.00,WUHU216HW,2013-05-28 12:05:00,
2013-05-28 05:10:00,50.2,0.0,29.97,North,0,0.0,0.0,0,0.00,,,0.00,WUHU216HW,2013-05-28 12:10:00,
2013-05-28 05:15:00,50.2,0.0,29.97,North,0,0.0,0.0,0,0.00,,,0.00,WUHU216HW,2013-05-28 12:15:00,
2013-05-28 05:20:00,50.3,0.0,29.97,North,0,0.0,0.0,0,0.00,,,0.00,WUHU216HW,2013-05-28 12:20:00,
2013-05-28 05:25:00,50.3,0.0,29.98,North,0,0.0,0.0,0,0.00,,,0.00,WUHU216HW,2013-05-28 12:25:00,
2013-05-28 05:30:00,50.5,0.0,29.98,North,0,0.0,0.0,0,0.00,,,0.00,WUHU216HW,2013-05-28 12:30:00,
2013-05-28 05:35:00,50.5,0.0,29.98,North,0,0.0,0.0,0,0.00,,,0.00,WUHU216HW,2013-05-28 12:35:00,
2013-05-28 05:40:00,50.7,0.0,29.98,North,0,0.0,0.0,0,0.00,,,0.00,WUHU216HW,2013-05-28 12:40:00,
2013-05-28 05:45:00,50.9,0.0,29.97,North,0,0.0,0.0,0,0.00,,,0.00,WUHU216HW,2013-05-28 12:45:00,
2013-05-28 05:50:00,50.9,0.0,29.97,North,0,0.0,0.0,0,0.00,,,0.00,WUHU216HW,2013-05-28 12:50:00,
2013-05-28 05:56:00,51.0,0.0,29.97,North,0,0.0,0.0,0,0.00,,,0.00,WUHU216HW,2013-05-28 12:56:00,
2013-05-28 06:01:00,51.0,0.0,29.97,North,0,0.0,0.0,0,0.00,,,0.00,WUHU216HW,2013-05-28 13:01:00,
2013-05-28 06:06:00,51.0,0.0,29.97,North,0,0.0,0.0,0,0.00,,,0.00,WUHU216HW,2013-05-28 13:06:00,
2013-05-28 06:11:00,51.0,0.0,29.97,North,0,0.0,0.0,0,0.00,,,0.00,WUHU216HW,2013-05-28 13:11:00,
2013-05-28 06:16:00,51.0,0.0,29.98,North,0,0.0,0.0,0,0.00,,,0.00,WUHU216HW,2013-05-28 13:16:00,
2013-05-28 06:21:00,51.0,0.0,29.97,North,0,0.0,0.0,0,0.00,,,0.00,WUHU216HW,2013-05-28 13:21:00,
2013-05-28 06:26:00,51.1,0.0,29.97,North,0,0.0,0.0,0,0.00,,,0.00,WUHU216HW,2013-05-28 13:26:00,
2013-05-28 06:31:00,51.2,0.0,29.97,North,0,0.0,0.0,0,0.00,,,0.00,WUHU216HW,2013-05-28 13:31:00,
2013-05-28 06:36:00,51.2,0.0,29.97,North,0,0.0,0.0,0,0.00,,,0.00,WUHU216HW,2013-05-28 13:36:00,
2013-05-28 06:41:00,51.2,0.0,29.97,North,0,0.0,0.0,0,0.00,,,0.00,WUHU216HW,2013-05-28 13:41:00,
2013-05-28 06:46:00,51.2,0.0,29.97,North,0,0.0,0.0,0,0.00,,,0.00,WUHU216HW,2013-05-28 13:46:00,
2013-05-28 06:52:00,51.5,0.0,29.98,North,0,0.0,0.0,0,0.00,,,0.00,WUHU216HW,2013-05-28 13:52:00,
2013-05-28 06:57:00,51.5,0.0,29.98,North,0,0.0,0.0,0,0.00,,,0.00,WUHU216HW,2013-05-28 13:57:00,
2013-05-28 07:02:00,51.5,0.0,29.99,North,0,0.0,0.0,0,0.00,,,0.00,WUHU216HW,2013-05-28 14:02:00,
2013-05-28 07:07:00,51.7,0.0,29.98,North,0,0.0,0.0,0,0.00,,,0.00,WUHU216HW,2013-05-28 14:07:00,
2013-05-28 07:12:00,51.7,0.0,29.99,North,0,0.0,0.0,0,0.00,,,0.00,WUHU216HW,2013-05-28 14:12:00,
2013-05-28 07:17:00,51.7,0.0,29.98,North,0,0.0,0.0,0,0.00,,,0.00,WUHU216HW,2013-05-28 14:17:00,
2013-05-28 07:22:00,52.0,0.0,29.98,North,0,0.0,0.0,0,0.00,,,0.00,WUHU216HW,2013-05-28 14:22:00,
2013-05-28 07:27:00,51.8,0.0,29.99,North,0,0.0,0.0,0,0.00,,,0.00,WUHU216HW,2013-05-28 14:27:00,
2013-05-28 07:32:00,52.0,0.0,29.98,North,0,0.0,0.0,0,0.00,,,0.00,WUHU216HW,2013-05-28 14:32:00,
2013-05-28 07:37:00,52.0,0.0,29.98,North,0,0.0,0.0,0,0.00,,,0.00,WUHU216HW,2013-05-28 14:37:00,
2013-05-28 07:42:00,52.2,0.0,29.99,North,0,0.0,0.0,0,0.00,,,0.00,WUHU216HW,2013-05-28 14:42:00,
2013-05-28 07:47:00,52.4,0.0,29.99,North,0,0.0,0.0,0,0.00,,,0.00,WUHU216HW,2013-05-28 14:47:00,
2013-05-28 07:53:00,52.4,0.0,29.99,North,0,0.0,0.0,0,0.00,,,0.00,WUHU216HW,2013-05-28 14:53:00,
2013-05-28 07:58:00,52.4,0.0,29.99,North,0,0.0,0.0,0,0.00,,,0.00,WUHU216HW,2013-05-28 14:58:00,
2013-05-28 08:03:00,52.4,0.0,29.99,North,0,0.0,0.0,0,0.00,,,0.00,WUHU216HW,2013-05-28 15:03:00,
2013-05-28 08:08:00,52.4,0.0,29.99,North,0,0.0,0.0,0,0.00,,,0.00,WUHU216HW,2013-05-28 15:08:00,
2013-05-28 08:13:00,52.7,0.0,29.99,North,0,0.0,0.0,0,0.00,,,0.00,WUHU216HW,2013-05-28 15:13:00,
2013-05-28 08:18:00,52.7,0.0,29.99,North,0,0.0,0.0,0,0.00,,,0.00,WUHU216HW,2013-05-28 15:18:00,
2013-05-28 08:23:00,52.7,0.0,29.99,North,0,0.0,0.0,0,0.00,,,0.00,WUHU216HW,2013-05-28 15:23:00,
2013-05-28 08:28:00,52.7,0.0,29.99,North,0,0.0,0.0,0,0.00,,,0.00,WUHU216HW,2013-05-28 15:28:00,
2013-05-28 08:33:00,52.7,0.0,30.00,North,0,0.0,0.0,0,0.00,,,0.00,WUHU216HW,2013-05-28 15:33:00,
2013-05-28 08:38:00,52.8,0.0,29.99,North,0,0.0,0.0,0,0.00,,,0.00,WUHU216HW,2013-05-28 15:38:00,
2013-05-28 08:43:00,53.0,0.0,30.00,North,0,0.0,0.0,0,0.00,,,0.00,WUHU216HW,2013-05-28 15:43:00,
2013-05-28 08:49:00,53.2,0.0,30.00,North,0,0.0,0.0,0,0.00,,,0.00,WUHU216HW,2013-05-28 15:49:00,
2013-05-28 08:54:00,53.4,0.0,29.99,North,0,0.0,0.0,0,0.00,,,0.00,WUHU216HW,2013-05-28 15:54:00,
2013-05-28 08:59:00,53.5,0.0,29.99,North,0,0.0,0.0,0,0.00,,,0.00,WUHU216HW,2013-05-28 15:59:00,
2013-05-28 09:04:00,53.5,0.0,29.99,North,0,0.0,0.0,0,0.00,,,0.00,WUHU216HW,2013-05-28 16:04:00,
2013-05-28 09:09:00,53.6,0.0,30.00,North,0,0.0,0.0,0,0.00,,,0.00,WUHU216HW,2013-05-28 16:09:00,
2013-05-28 09:14:00,53.6,0.0,30.00,North,0,0.0,0.0,0,0.00,,,0.00,WUHU216HW,2013-05-28 16:14:00,
2013-05-28 09:19:00,53.6,0.0,30.00,North,0,0.0,0.0,0,0.00,,,0.00,WUHU216HW,2013-05-28 16:19:00,
2013-05-28 09:24:00,53.6,0.0,30.00,North,0,0.0,0.0,0,0.00,,,0.00,WUHU216HW,2013-05-28 16:24:00,
2013-05-28 09:29:00,53.6,0.0,30.00,North,0,0.0,0.0,0,0.00,,,0.00,WUHU216HW,2013-05-28 16:29:00,
2013-05-28 09:34:00,53.7,0.0,30.00,North,0,0.0,0.0,0,0.00,,,0.00,WUHU216HW,2013-05-28 16:34:00,
2013-05-28 09:39:00,53.9,0.0,30.00,North,0,0.0,0.0,0,0.00,,,0.00,WUHU216HW,2013-05-28 16:39:00,
2013-05-28 09:45:00,53.9,0.0,30.00,North,0,0.0,0.0,0,0.00,,,0.00,WUHU216HW,2013-05-28 16:45:00,
2013-05-28 09:50:00,54.0,0.0,30.01,North,0,0.0,0.0,0,0.00,,,0.00,WUHU216HW,2013-05-28 16:50:00,
2013-05-28 09:55:00,54.0,0.0,30.01,North,0,0.0,0.0,0,0.00,,,0.00,WUHU216HW,2013-05-28 16:55:00,
2013-05-28 10:00:00,54.2,0.0,30.01,North,0,0.0,0.0,0,0.00,,,0.00,WUHU216HW,2013-05-28 17:00:00,
2013-05-28 10:05:00,54.4,0.0,30.00,North,0,0.0,0.0,0,0.00,,,0.00,WUHU216HW,2013-05-28 17:05:00,
2013-05-28 10:10:00,54.7,0.0,30.00,North,0,0.0,0.0,0,0.00,,,0.00,WUHU216HW,2013-05-28 17:10:00,
2013-05-28 10:15:00,54.8,0.0,30.01,North,0,0.0,0.0,0,0.00,,,0.00,WUHU216HW,2013-05-28 17:15:00,
2013-05-28 10:20:00,54.8,0.0,30.01,North,0,0.0,0.0,0,0.00,,,0.00,WUHU216HW,2013-05-28 17:20:00,
2013-05-28 10:25:00,55.2,0.0,30.01,North,0,0.0,0.0,0,0.00,,,0.00,WUHU216HW,2013-05-28 17:25:00,
2013-05-28 10:30:00,55.4,0.0,30.01,North,0,0.0,0.0,0,0.00,,,0.00,WUHU216HW,2013-05-28 17:30:00,
2013-05-28 10:35:00,55.5,0.0,30.01,North,0,0.0,0.0,0,0.00,,,0.00,WUHU216HW,2013-05-28 17:35:00,
2013-05-28 10:40:00,55.7,0.0,30.01,North,0,0.0,0.0,0,0.00,,,0.00,WUHU216HW,2013-05-28 17:40:00,
2013-05-28 10:46:00,55.7,0.0,30.00,North,0,0.0,0.0,0,0.00,,,0.00,WUHU216HW,2013-05-28 17:46:00,
2013-05-28 10:51:00,56.0,0.0,30.00,North,0,0.0,0.0,0,0.00,,,0.00,WUHU216HW,2013-05-28 17:51:00,
2013-05-28 10:56:00,56.2,0.0,30.01,North,0,0.0,0.0,0,0.00,,,0.00,WUHU216HW,2013-05-28 17:56:00,
2013-05-28 11:01:00,56.8,0.0,30.00,North,0,0.0,0.0,0,0.00,,,0.00,WUHU216HW,2013-05-28 18:01:00,
2013-05-28 11:06:00,56.8,0.0,30.01,North,0,0.0,0.0,0,0.00,,,0.00,WUHU216HW,2013-05-28 18:06:00,
2013-05-28 11:11:00,57.2,0.0,30.01,North,0,0.0,0.0,0,0.00,,,0.00,WUHU216HW,2013-05-28 18:11:00,
2013-05-28 11:16:00,57.2,0.0,30.01,North,0,0.0,0.0,0,0.00,,,0.00,WUHU216HW,2013-05-28 18:16:00,
2013-05-28 11:21:00,57.6,0.0,30.00,North,0,0.0,0.0,0,0.00,,,0.00,WUHU216HW,2013-05-28 18:21:00,
2013-05-28 11:26:00,57.6,0.0,30.00,North,0,0.0,0.0,0,0.00,,,0.00,WUHU216HW,2013-05-28 18:26:00,
2013-05-28 11:31:00,57.8,0.0,30.01,North,0,0.0,0.0,0,0.00,,,0.00,WUHU216HW,2013-05-28 18:31:00,
2013-05-28 11:36:00,57.8,0.0,30.01,North,0,0.0,0.0,0,0.00,,,0.00,WUHU216HW,2013-05-28 18:36:00,
2013-05-28 11:42:00,57.8,0.0,30.01,North,0,0.0,0.0,0,0.00,,,0.00,WUHU216HW,2013-05-28 18:42:00,
2013-05-28 11:47:00,58.2,0.0,30.01,North,0,0.0,0.0,0,0.00,,,0.00,WUHU216HW,2013-05-28 18:47:00,
2013-05-28 11:52:00,58.6,0.0,30.01,North,0,0.0,0.0,0,0.00,,,0.00,WUHU216HW,2013-05-28 18:52:00,
2013-05-28 11:57:00,59.1,0.0,30.01,North,0,0.0,0.0,0,0.00,,,0.00,WUHU216HW,2013-05-28 18:57:00,
2013-05-28 12:02:00,59.9,0.0,30.01,North,0,0.0,0.0,0,0.00,,,0.00,WUHU216HW,2013-05-28 19:02:00,
2013-05-28 12:07:00,59.9,0.0,30.02,North,0,0.0,0.0,0,0.00,,,0.00,WUHU216HW,2013-05-28 19:07:00,
2013-05-28 12:12:00,60.3,0.0,30.02,North,0,0.0,0.0,0,0.00,,,0.00,WUHU216HW,2013-05-28 19:12:00,
2013-05-28 12:17:00,60.6,0.0,30.01,North,0,0.0,0.0,0,0.00,,,0.00,WUHU216HW,2013-05-28 19:17:00,
2013-05-28 12:22:00,61.2,0.0,30.01,North,0,0.0,0.0,0,0.00,,,0.00,WUHU216HW,2013-05-28 19:22:00,
2013-05-28 12:27:00,61.0,0.0,30.01,North,0,0.0,0.0,0,0.00,,,0.00,WUHU216HW,2013-05-28 19:27:00,
2013-05-28 12:32:00,61.2,0.0,30.00,North,0,0.0,0.0,0,0.00,,,0.00,WUHU216HW,2013-05-28 19:32:00,
2013-05-28 12:38:00,61.7,0.0,30.01,North,0,0.0,0.0,0,0.00,,,0.00,WUHU216HW,2013-05-28 19:38:00,
2013-05-28 12:43:00,62.0,0.0,30.01,North,0,0.0,0.0,0,0.00,,,0.00,WUHU216HW,2013-05-28 19:43:00,
2013-05-28 12:48:00,62.4,0.0,30.01,North,0,0.0,0.0,0,0.00,,,0.00,WUHU216HW,2013-05-28 19:48:00,
2013-05-28 12:53:00,62.4,0.0,30.01,North,0,0.0,0.0,0,0.00,,,0.00,WUHU216HW,2013-05-28 19:53:00,
2013-05-28 12:58:00,63.3,0.0,30.01,North,0,0.0,0.0,0,0.00,,,0.00,WUHU216HW,2013-05-28 19:58:00,
2013-05-28 13:03:00,63.6,0.0,30.00,North,0,0.0,0.0,0,0.00,,,0.00,WUHU216HW,2013-05-28 20:03:00,
2013-05-28 13:08:00,64.0,0.0,30.01,North,0,0.0,0.0,0,0.00,,,0.00,WUHU216HW,2013-05-28 20:08:00,
2013-05-28 13:14:00,64.7,0.0,30.01,North,0,0.0,0.0,0,0.00,,,0.00,WUHU216HW,2013-05-28 20:14:00,
2013-05-28 13:19:00,64.0,0.0,30.00,North,0,0.0,0.0,0,0.00,,,0.00,WUHU216HW,2013-05-28 20:19:00,
2013-05-28 13:24:00,64.0,0.0,30.01,North,0,0.0,0.0,0,0.00,,,0.00,WUHU216HW,2013-05-28 20:24:00,
2013-05-28 13:29:00,64.7,0.0,30.01,North,0,0.0,0.0,0,0.00,,,0.00,WUHU216HW,2013-05-28 20:29:00,
2013-05-28 13:34:00,65.1,0.0,30.00,North,0,0.0,0.0,0,0.00,,,0.00,WUHU216HW,2013-05-28 20:34:00,
2013-05-28 13:39:00,65.5,0.0,30.00,North,0,0.0,0.0,0,0.00,,,0.00,WUHU216HW,2013-05-28 20:39:00,
2013-05-28 13:44:00,66.1,0.0,30.00,North,0,0.0,0.0,0,0.00,,,0.00,WUHU216HW,2013-05-28 20:44:00,
2013-05-28 13:49:00,66.2,0.0,30.00,North,0,0.0,0.0,0,0.00,,,0.00,WUHU216HW,2013-05-28 20:49:00,
2013-05-28 13:54:00,66.6,0.0,30.00,North,0,0.0,0.0,0,0.00,,,0.00,WUHU216HW,2013-05-28 20:54:00,
2013-05-28 13:59:00,66.8,0.0,30.00,North,0,0.0,0.0,0,0.00,,,0.00,WUHU216HW,2013-05-28 20:59:00,
2013-05-28 14:04:00,67.0,0.0,30.00,North,0,0.0,0.0,0,0.00,,,0.00,WUHU216HW,2013-05-28 21:04:00,
2013-05-28 14:09:00,67.3,0.0,30.00,North,0,0.0,0.0,0,0.00,,,0.00,WUHU216HW,2013-05-28 21:09:00,
2013-05-28 14:14:00,67.0,0.0,30.00,North,0,0.0,0.0,0,0.00,,,0.00,WUHU216HW,2013-05-28 21:14:00,
2013-05-28 14:20:00,67.5,0.0,30.00,North,0,0.0,0.0,0,0.00,,,0.00,WUHU216HW,2013-05-28 21:20:00,
2013-05-28 14:25:00,67.3,0.0,30.00,North,0,0.0,0.0,0,0.00,,,0.00,WUHU216HW,2013-05-28 21:25:00,
2013-05-28 14:30:00,67.3,0.0,30.00,North,0,0.0,0.0,0,0.00,,,0.00,WUHU216HW,2013-05-28 21:30:00,
2013-05-28 14:35:00,67.3,0.0,30.00,North,0,0.0,0.0,0,0.00,,,0.00,WUHU216HW,2013-05-28 21:35:00,
2013-05-28 14:40:00,67.9,0.0,30.00,North,0,0.0,0.0,0,0.00,,,0.00,WUHU216HW,2013-05-28 21:40:00,
2013-05-28 14:45:00,68.0,0.0,30.00,North,0,0.0,0.0,0,0.00,,,0.00,WUHU216HW,2013-05-28 21:45:00,
2013-05-28 14:50:00,68.6,0.0,30.00,North,0,0.0,0.0,0,0.00,,,0.00,WUHU216HW,2013-05-28 21:50:00,
2013-05-28 14:55:00,68.4,0.0,30.00,North,0,0.0,0.0,0,0.00,,,0.00,WUHU216HW,2013-05-28 21:55:00,
2013-05-28 15:00:00,68.8,0.0,30.00,North,0,0.0,0.0,0,0.00,,,0.00,WUHU216HW,2013-05-28 22:00:00,
2013-05-28 15:05:00,69.3,0.0,30.00,North,0,0.0,0.0,0,0.00,,,0.00,WUHU216HW,2013-05-28 22:05:00,
2013-05-28 15:10:00,69.3,0.0,30.00,North,0,0.0,0.0,0,0.00,,,0.00,WUHU216HW,2013-05-28 22:10:00,
2013-05-28 15:16:00,69.1,0.0,30.00,North,0,0.0,0.0,0,0.00,,,0.00,WUHU216HW,2013-05-28 22:16:00,
2013-05-28 15:21:00,69.3,0.0,30.00,North,0,0.0,0.0,0,0.00,,,0.00,WUHU216HW,2013-05-28 22:21:00,
2013-05-28 15:26:00,68.8,0.0,30.00,North,0,0.0,0.0,0,0.00,,,0.00,WUHU216HW,2013-05-28 22:26:00,
2013-05-28 15:31:00,68.4,0.0,29.99,North,0,0.0,0.0,0,0.00,,,0.00,WUHU216HW,2013-05-28 22:31:00,
2013-05-28 15:36:00,68.4,0.0,29.99,North,0,0.0,0.0,0,0.00,,,0.00,WUHU216HW,2013-05-28 22:36:00,
2013-05-28 15:41:00,68.2,0.0,29.99,North,0,0.0,0.0,0,0.00,,,0.00,WUHU216HW,2013-05-28 22:41:00,
2013-05-28 15:46:00,68.9,0.0,29.99,North,0,0.0,0.0,0,0.00,,,0.00,WUHU216HW,2013-05-28 22:46:00,
2013-05-28 15:51:00,69.1,0.0,29.98,North,0,0.0,0.0,0,0.00,,,0.00,WUHU216HW,2013-05-28 22:51:00,
2013-05-28 15:56:00,69.8,0.0,29.98,North,0,0.0,0.0,0,0.00,,,0.00,WUHU216HW,2013-05-28 22:56:00,
2013-05-28 16:01:00,69.9,0.0,29.98,North,0,0.0,0.0,0,0.00,,,0.00,WUHU216HW,2013-05-28 23:01:00,
2013-05-28 16:07:00,69.9,0.0,29.98,North,0,0.0,0.0,0,0.00,,,0.00,WUHU216HW,2013-05-28 23:07:00,
2013-05-28 16:12:00,70.3,0.0,29.98,North,0,0.0,0.0,0,0.00,,,0.00,WUHU216HW,2013-05-28 23:12:00,
2013-05-28 16:17:00,71.0,0.0,29.98,North,0,0.0,0.0,0,0.00,,,0.00,WUHU216HW,2013-05-28 23:17:00,
2013-05-28 16:22:00,71.2,0.0,29.98,North,0,0.0,0.0,0,0.00,,,0.00,WUHU216HW,2013-05-28 23:22:00,
2013-05-28 16:27:00,71.2,0.0,29.98,North,0,0.0,0.0,0,0.00,,,0.00,WUHU216HW,2013-05-28 23:27:00,
2013-05-28 16:32:00,71.0,0.0,29.98,North,0,0.0,0.0,0,0.00,,,0.00,WUHU216HW,2013-05-28 23:32:00,
2013-05-28 16:37:00,71.0,0.0,29.97,North,0,0.0,0.0,0,0.00,,,0.00,WUHU216HW,2013-05-28 23:37:00,
2013-05-28 16:42:00,70.8,0.0,29.97,North,0,0.0,0.0,0,0.00,,,0.00,WUHU216HW,2013-05-28 23:42:00,
2013-05-28 16:47:00,70.8,0.0,29.98,North,0,0.0,0.0,0,0.00,,,0.00,WUHU216HW,2013-05-28 23:47:00,
2013-05-28 16:52:00,70.5,0.0,29.97,North,0,0.0,0.0,0,0.00,,,0.00,WUHU216HW,2013-05-28 23:52:00,
2013-05-28 16:57:00,70.2,0.0,29.97,North,0,0.0,0.0,0,0.00,,,0.00,WUHU216HW,2013-05-28 23:57:00,
2013-05-28 17:02:00,70.4,0.0,29.97,North,0,0.0,0.0,0,0.00,,,0.00,WUHU216HW,2013-05-29 00:02:00,
2013-05-28 17:08:00,70.2,0.0,29.97,North,0,0.0,0.0,0,0.00,,,0.00,WUHU216HW,2013-05-29 00:08:00,
2013-05-28 17:13:00,70.4,0.0,29.97,North,0,0.0,0.0,0,0.00,,,0.00,WUHU216HW,2013-05-29 00:13:00,
2013-05-28 17:18:00,70.4,0.0,29.97,North,0,0.0,0.0,0,0.00,,,0.00,WUHU216HW,2013-05-29 00:18:00,
2013-05-28 17:23:00,70.4,0.0,29.97,North,0,0.0,0.0,0,0.00,,,0.00,WUHU216HW,2013-05-29 00:23:00,
2013-05-28 17:28:00,70.4,0.0,29.96,North,0,0.0,0.0,0,0.00,,,0.00,WUHU216HW,2013-05-29 00:28:00,
2013-05-28 17:33:00,70.3,0.0,29.96,North,0,0.0,0.0,0,0.00,,,0.00,WUHU216HW,2013-05-29 00:33:00,
2013-05-28 17:38:00,70.8,0.0,29.97,North,0,0.0,0.0,0,0.00,,,0.00,WUHU216HW,2013-05-29 00:38:00,
2013-05-28 17:43:00,70.4,0.0,29.96,North,0,0.0,0.0,0,0.00,,,0.00,WUHU216HW,2013-05-29 00:43:00,
2013-05-28 17:48:00,70.3,0.0,29.96,North,0,0.0,0.0,0,0.00,,,0.00,WUHU216HW,2013-05-29 00:48:00,
2013-05-28 17:53:00,69.5,0.0,29.97,North,0,0.0,0.0,0,0.00,,,0.00,WUHU216HW,2013-05-29 00:53:00,
2013-05-28 17:58:00,69.2,0.0,29.96,North,0,0.0,0.0,0,0.00,,,0.00,WUHU216HW,2013-05-29 00:58:00,
2013-05-28 18:03:00,69.0,0.0,29.96,North,0,0.0,0.0,0,0.00,,,0.00,WUHU216HW,2013-05-29 01:03:00,
2013-05-28 18:09:00,68.5,0.0,29.97,North,0,0.0,0.0,0,0.00,,,0.00,WUHU216HW,2013-05-29 01:09:00,
2013-05-28 18:14:00,68.0,0.0,29.97,North,0,0.0,0.0,0,0.00,,,0.00,WUHU216HW,2013-05-29 01:14:00,
2013-05-28 18:19:00,67.6,0.0,29.97,North,0,0.0,0.0,0,0.00,,,0.00,WUHU216HW,2013-05-29 01:19:00,
2013-05-28 18:24:00,67.5,0.0,29.96,North,0,0.0,0.0,0,0.00,,,0.00,WUHU216HW,2013-05-29 01:24:00,
2013-05-28 18:29:00,67.3,0.0,29.96,North,0,0.0,0.0,0,0.00,,,0.00,WUHU216HW,2013-05-29 01:29:00,
2013-05-28 18:34:00,67.0,0.0,29.96,North,0,0.0,0.0,0,0.00,,,0.00,WUHU216HW,2013-05-29 01:34:00,
2013-05-28 18:39:00,66.8,0.0,29.96,North,0,0.0,0.0,0,0.00,,,0.00,WUHU216HW,2013-05-29 01:39:00,
2013-05-28 18:44:00,66.8,0.0,29.96,North,0,0.0,0.0,0,0.00,,,0.00,WUHU216HW,2013-05-29 01:44:00,
2013-05-28 18:49:00,66.6,0.0,29.96,North,0,0.0,0.0,0,0.00,,,0.00,WUHU216HW,2013-05-29 01:49:00,
2013-05-28 18:54:00,66.6,0.0,29.96,North,0,0.0,0.0,0,0.00,,,0.00,WUHU216HW,2013-05-29 01:54:00,
2013-05-28 19:00:00,66.5,0.0,29.96,North,0,0.0,0.0,0,0.00,,,0.00,WUHU216HW,2013-05-29 02:00:00,
2013-05-28 19:05:00,66.2,0.0,29.96,North,0,0.0,0.0,0,0.00,,,0.00,WUHU216HW,2013-05-29 02:05:00,
2013-05-28 19:10:00,65.8,0.0,29.96,North,0,0.0,0.0,0,0.00,,,0.00,WUHU216HW,2013-05-29 02:10:00,
2013-05-28 19:15:00,65.6,0.0,29.96,North,0,0.0,0.0,0,0.00,,,0.00,WUHU216HW,2013-05-29 02:15:00,
2013-05-28 19:20:00,65.3,0.0,29.97,North,0,0.0,0.0,0,0.00,,,0.00,WUHU216HW,2013-05-29 02:20:00,
2013-05-28 19:25:00,65.1,0.0,29.97,North,0,0.0,0.0,0,0.00,,,0.00,WUHU216HW,2013-05-29 02:25:00,
2013-05-28 19:30:00,64.3,0.0,29.97,North,0,0.0,0.0,0,0.00,,,0.00,WUHU216HW,2013-05-29 02:30:00,
2013-05-28 19:35:00,64.1,0.0,29.97,North,0,0.0,0.0,0,0.00,,,0.00,WUHU216HW,2013-05-29 02:35:00,
2013-05-28 19:40:00,63.9,0.0,29.97,North,0,0.0,0.0,0,0.00,,,0.00,WUHU216HW,2013-05-29 02:40:00,
2013-05-28 19:45:00,63.7,0.0,29.97,North,0,0.0,0.0,0,0.00,,,0.00,WUHU216HW,2013-05-29 02:45:00,
2013-05-28 19:50:00,63.3,0.0,29.97,North,0,0.0,0.0,0,0.00,,,0.00,WUHU216HW,2013-05-29 02:50:00,
2013-05-28 19:55:00,62.9,0.0,29.96,North,0,0.0,0.0,0,0.00,,,0.00,WUHU216HW,2013-05-29 02:55:00,
2013-05-28 20:00:00,62.6,0.0,29.97,North,0,0.0,0.0,0,0.00,,,0.00,WUHU216HW,2013-05-29 03:00:00,
2013-05-28 20:06:00,62.5,0.0,29.97,North,0,0.0,0.0,0,0.00,,,0.00,WUHU216HW,2013-05-29 03:06:00,
2013-05-28 20:11:00,62.1,0.0,29.96,North,0,0.0,0.0,0,0.00,,,0.00,WUHU216HW,2013-05-29 03:11:00,
2013-05-28 20:16:00,61.6,0.0,29.97,North,0,0.0,0.0,0,0.00,,,0.00,WUHU216HW,2013-05-29 03:16:00,
2013-05-28 20:21:00,61.6,0.0,29.96,North,0,0.0,0.0,0,0.00,,,0.00,WUHU216HW,2013-05-29 03:21:00,
2013-05-28 20:26:00,61.4,0.0,29.96,North,0,0.0,0.0,0,0.00,,,0.00,WUHU216HW,2013-05-29 03:26:00,
2013-05-28 20:31:00,61.2,0.0,29.96,North,0,0.0,0.0,0,0.00,,,0.00,WUHU216HW,2013-05-29 03:31:00,
2013-05-28 20:36:00,61.2,0.0,29.97,North,0,0.0,0.0,0,0.00,,,0.00,WUHU216HW,2013-05-29 03:36:00,
2013-05-28 20:41:00,61.1,0.0,29.97,North,0,0.0,0.0,0,0.00,,,0.00,WUHU216HW,2013-05-29 03:41:00,
2013-05-28 20:46:00,61.1,0.0,29.96,North,0,0.0,0.0,0,0.00,,,0.00,WUHU216HW,2013-05-29 03:46:00,
2013-05-28 20:51:00,61.0,0.0,29.96,North,0,0.0,0.0,0,0.00,,,0.00,WUHU216HW,2013-05-29 03:51:00,
2013-05-28 20:57:00,60.8,0.0,29.96,North,0,0.0,0.0,0,0.00,,,0.00,WUHU216HW,2013-05-29 03:57:00,
2013-05-28 21:01:00,60.6,0.0,29.96,North,0,0.0,0.0,0,0.00,,,0.00,WUHU216HW,2013-05-29 04:01:00,
2013-05-28 21:02:00,60.6,0.0,29.96,North,0,0.0,0.0,0,0.00,,,0.00,WUHU216HW,2013-05-29 04:02:00,
2013-05-28 21:07:00,60.3,0.0,29.96,North,0,0.0,0.0,0,0.00,,,0.00,WUHU216HW,2013-05-29 04:07:00,
2013-05-28 21:12:00,60.3,0.0,29.96,North,0,0.0,0.0,0,0.00,,,0.00,WUHU216HW,2013-05-29 04:12:00,
2013-05-28 21:17:00,60.0,0.0,29.95,North,0,0.0,0.0,0,0.00,,,0.00,WUHU216HW,2013-05-29 04:17:00,
2013-05-28 21:22:00,59.8,0.0,29.96,North,0,0.0,0.0,0,0.00,,,0.00,WUHU216HW,2013-05-29 04:22:00,
2013-05-28 21:27:00,59.8,0.0,29.96,North,0,0.0,0.0,0,0.00,,,0.00,WUHU216HW,2013-05-29 04:27:00,
2013-05-28 21:32:00,59.6,0.0,29.96,North,0,0.0,0.0,0,0.00,,,0.00,WUHU216HW,2013-05-29 04:32:00,
2013-05-28 21:37:00,59.6,0.0,29.95,North,0,0.0,0.0,0,0.00,,,0.00,WUHU216HW,2013-05-29 04:37:00,
2013-05-28 21:42:00,59.4,0.0,29.96,North,0,0.0,0.0,0,0.00,,,0.00,WUHU216HW,2013-05-29 04:42:00,
2013-05-28 21:48:00,59.3,0.0,29.96,North,0,0.0,0.0,0,0.00,,,0.00,WUHU216HW,2013-05-29 04:48:00,
2013-05-28 21:53:00,59.2,0.0,29.96,North,0,0.0,0.0,0,0.00,,,0.00,WUHU216HW,2013-05-29 04:53:00,
2013-05-28 21:58:00,59.0,0.0,29.96,North,0,0.0,0.0,0,0.00,,,0.00,WUHU216HW,2013-05-29 04:58:00,
2013-05-28 22:03:00,59.0,0.0,29.97,North,0,0.0,0.0,0,0.00,,,0.00,WUHU216HW,2013-05-29 05:03:00,
2013-05-28 22:08:00,58.8,0.0,29.97,North,0,0.0,0.0,0,0.00,,,0.00,WUHU216HW,2013-05-29 05:08:00,
2013-05-28 22:13:00,58.5,0.0,29.97,North,0,0.0,0.0,0,0.00,,,0.00,WUHU216HW,2013-05-29 05:13:00,
2013-05-28 22:18:00,58.5,0.0,29.97,North,0,0.0,0.0,0,0.00,,,0.00,WUHU216HW,2013-05-29 05:18:00,
2013-05-28 22:23:00,58.5,0.0,29.97,North,0,0.0,0.0,0,0.00,,,0.00,WUHU216HW,2013-05-29 05:23:00,
2013-05-28 22:28:00,58.3,0.0,29.96,North,0,0.0,0.0,0,0.00,,,0.00,WUHU216HW,2013-05-29 05:28:00,
2013-05-28 22:33:00,58.2,0.0,29.96,North,0,0.0,0.0,0,0.00,,,0.00,WUHU216HW,2013-05-29 05:33:00,
2013-05-28 22:38:00,58.2,0.0,29.96,North,0,0.0,0.0,0,0.00,,,0.00,WUHU216HW,2013-05-29 05:38:00,
2013-05-28 22:43:00,58.1,0.0,29.97,North,0,0.0,0.0,0,0.00,,,0.00,WUHU216HW,2013-05-29 05:43:00,
2013-05-28 22:49:00,57.9,0.0,29.97,North,0,0.0,0.0,0,0.00,,,0.00,WUHU216HW,2013-05-29 05:49:00,
2013-05-28 22:54:00,57.7,0.0,29.97,North,0,0.0,0.0,0,0.00,,,0.00,WUHU216HW,2013-05-29 05:54:00,
2013-05-28 22:59:00,57.7,0.0,29.97,North,0,0.0,0.0,0,0.00,,,0.00,WUHU216HW,2013-05-29 05:59:00,
2013-05-28 23:04:00,57.3,0.0,29.97,North,0,0.0,0.0,0,0.00,,,0.00,WUHU216HW,2013-05-29 06:04:00,
2013-05-28 23:09:00,57.3,0.0,29.97,North,0,0.0,0.0,0,0.00,,,0.00,WUHU216HW,2013-05-29 06:09:00,
2013-05-28 23:14:00,57.2,0.0,29.97,North,0,0.0,0.0,0,0.00,,,0.00,WUHU216HW,2013-05-29 06:14:00,
2013-05-28 23:19:00,56.9,0.0,29.96,North,0,0.0,0.0,0,0.00,,,0.00,WUHU216HW,2013-05-29 06:19:00,
2013-05-28 23:24:00,56.7,0.0,29.97,North,0,0.0,0.0,0,0.00,,,0.00,WUHU216HW,2013-05-29 06:24:00,
2013-05-28 23:29:00,56.5,0.0,29.97,North,0,0.0,0.0,0,0.00,,,0.00,WUHU216HW,2013-05-29 06:29:00,
2013-05-28 23:34:00,56.5,0.0,29.97,North,0,0.0,0.0,0,0.00,,,0.00,WUHU216HW,2013-05-29 06:34:00,
2013-05-28 23:39:00,56.3,0.0,29.96,North,0,0.0,0.0,0,0.00,,,0.00,WUHU216HW,2013-05-29 06:39:00,
2013-05-28 23:44:00,56.2,0.0,29.96,North,0,0.0,0.0,0,0.00,,,0.00,WUHU216HW,2013-05-29 06:44:00,
2013-05-28 23:50:00,56.2,0.0,29.96,North,0,0.0,0.0,0,0.00,,,0.00,WUHU216HW,2013-05-29 06:50:00,
2013-05-28 23:55:00,55.8,0.0,29.96,North,0,0.0,0.0,0,0.00,,,0.00,WUHU216HW,2013-05-29 06:55:00,